Palm Springs, CA

12:54 AM PDT on June 22, 2018 (GMT -0700)
Palm Springs International

Weather History for KPSP - October, 2017

Change the Weather History Date:

Monday, October 9, 2017

  Actual Average Record
Temperature  
Mean Temperature 77 °F 78 °F  
Max Temperature 85 °F 92 °F 110 °F (1991)
Min Temperature 68 °F 65 °F 44 °F (1961)
Degree Days  
Heating Degree Days 0 0  
Month to date heating degree days 0 0  
Since 1 July heating degree days 0 0  
Cooling Degree Days 12 13  
Month to date cooling degree days 139 130  
Year to date cooling degree days 4652 3856  
Growing Degree Days 28 (Base 50)    
Moisture  
Dew Point 16 °F    
Average Humidity 22    
Maximum Humidity 38    
Minimum Humidity 6    
Precipitation  
Precipitation 0.00 in 0.01 in 0.07 in (2013)
Month to date precipitation 0.00 0.08  
Year to date precipitation 7.17 3.97  
Sea Level Pressure  
Sea Level Pressure 29.97 in    
Wind  
Wind Speed 7 mph (NW)    
Max Wind Speed 22 mph    
Max Gust Speed 29 mph    
Visibility 10 miles    
Events      
T = Trace of Precipitation, MM = Missing Value Source: NWS Daily Summary

Daily Weather History Graph

Daily Weather History Graph

Search for Another Location

Airport or City:

Astronomy

Oct. 09, 2017 Rise Set
Actual Time 6:46 AM PDT 6:19 PM PDT
Civil Twilight 6:21 AM PDT 6:44 PM PDT
Nautical Twilight 5:52 AM PDT 7:13 PM PDT
Astronomical Twilight 5:23 AM PDT 7:41 PM PDT
Moon 9:42 PM PDT (10/9) 10:53 AM PDT (10/9)
Length of Visible Light 12h 22m
Length of Day
11h 32m
Waning Gibbous, 80% of the Moon is Illuminated
Oct 9
Waning Gibbous
Oct 12
Last Quarter
Oct 19
New
Oct 27
First Quarter
Nov 3
Full

Hourly Weather History & Observations

Time (PDT) Temp. Dew Point Humidity Pressure Visibility Wind Dir Wind Speed Gust Speed Precip Events Conditions
12:53 AM 75.0 °F 48.9 °F 40% 29.71 in 10.0 mi West 3.5 mph - N/A   Clear
1:53 AM 77.0 °F 45.0 °F 32% 29.78 in 10.0 mi West 6.9 mph - N/A   Clear
2:53 AM 80.1 °F 21.9 °F 12% 29.82 in 9.0 mi North - - N/A   Mostly Cloudy
3:53 AM 77.0 °F 17.1 °F 10% 29.86 in 8.0 mi NW 15.0 mph - N/A   Mostly Cloudy
4:53 AM 75.9 °F 15.1 °F 10% 29.89 in 8.0 mi WNW 8.1 mph - N/A   Overcast
5:53 AM 75.0 °F 12.9 °F 9% 29.94 in 5.0 mi NNW 9.2 mph - N/A   Widespread Dust
6:53 AM 73.0 °F 10.9 °F 9% 29.98 in 10.0 mi NW 12.7 mph - N/A   Widespread Dust
7:53 AM 73.0 °F 10.9 °F 9% 30.01 in 10.0 mi NNW 12.7 mph 19.6 mph N/A   Widespread Dust
8:53 AM 75.0 °F 12.9 °F 9% 30.04 in 10.0 mi West 5.8 mph - N/A   Clear
9:53 AM 78.1 °F 12.9 °F 8% 30.06 in 10.0 mi North 16.1 mph - N/A   Clear
10:08 AM 78.1 °F 12.9 °F 8% 30.07 in 10.0 mi NNW 16.1 mph 29.9 mph N/A   Clear
10:53 AM 79.0 °F 12.9 °F 8% 30.06 in 10.0 mi NNW 16.1 mph - N/A   Clear
11:53 AM 80.1 °F 12.9 °F 8% 30.05 in 10.0 mi WNW 5.8 mph - N/A   Clear
12:53 PM 82.0 °F 10.0 °F 7% 30.03 in 10.0 mi North 6.9 mph - N/A   Clear
1:53 PM 82.9 °F 9.0 °F 6% 30.00 in 10.0 mi Calm Calm - N/A   Clear
2:53 PM 84.0 °F 9.0 °F 6% 29.98 in 10.0 mi SSE 4.6 mph - N/A   Clear
3:53 PM 84.9 °F 10.0 °F 6% 29.97 in 10.0 mi Variable 4.6 mph - N/A   Clear
4:53 PM 84.0 °F 10.9 °F 6% 29.97 in 10.0 mi North - - N/A   Clear
5:53 PM 82.0 °F 12.0 °F 7% 29.97 in 10.0 mi NNW 6.9 mph - N/A   Clear
6:53 PM 78.1 °F 18.0 °F 10% 29.98 in 10.0 mi Variable 4.6 mph - N/A   Clear
7:53 PM 77.0 °F 17.1 °F 10% 29.99 in 10.0 mi WNW 4.6 mph - N/A   Clear
8:53 PM 73.9 °F 18.0 °F 12% 29.99 in 10.0 mi WSW 5.8 mph - N/A   Clear
9:53 PM 73.0 °F 16.0 °F 11% 29.99 in 10.0 mi NW 4.6 mph - N/A   Clear
10:53 PM 71.1 °F 16.0 °F 12% 30.00 in 10.0 mi West 3.5 mph - N/A   Clear
11:53 PM 70.0 °F 14.0 °F 12% 30.00 in 10.0 mi NW 5.8 mph - N/A   Clear